Orbital Elements at Epoch 2459000.5 (2020-May-31.0) TDB
Reference: JPL 17 (heliocentric ecliptic J2000)
Element | Value | Uncertainty (1-sigma) | Units |
e | .1778609604703419 | 3.6059e-08 | |
a | 2.323252391279766 | 9.9846e-09 | au |
q | 1.910036489551728 | 8.3225e-08 | au |
i | 11.68991739080399 | 4.8333e-06 | deg |
node | 72.73904980163076 | 2.4044e-05 | deg |
peri | 25.53775927230792 | 2.9759e-05 | deg |
M | 206.0017726874979 | 1.8347e-05 | deg |
tp | 2459553.794352042802 (2021-Dec-05.29435204) | 6.7899e-05 | TDB |
period | 1293.430257032822 3.54 | 8.3382e-06 2.283e-08 | d yr |
n | .2783296571597557 | 1.7943e-09 | deg/d |
Q | 2.736468293007803 | 1.1761e-08 | au |
|
| | Orbit Determination Parameters
Additional Information
|